[[{"header":{"parameterUnit":"m.s-1","parameterCategory":1,"la1":30.2991,"la2":30.254,"lo1":-89.0895,"lo2":-89.0444,"dy":0.0017,"dx":0.0017,"nx":28,"ny":28,"refTime":"2024-06-19T09:00:00:Z","depth":0,"parameterNumber":2,"parameterNumberName":"U-component_of_WINDS"},"data":[0,0,0,0,0,0,0,0,0,0,0,0,0,0,0,0,0,0,0,0,0,0,0,0,0,0,0,0,0,0,0,0,0,0,0,0,0,0,0,0,0,0,0,0,0,0,0,0,0,0,0,0,0,0,0,0,0,0,-7.1664,-7.1664,0,-7.1754,-7.1755,-7.1756,-7.1519,-7.1512,-7.1505,-7.1498,-7.1598,-7.1607,-7.1616,0,0,0,0,0,0,0,0,0,0,0,0,0,-7.1292,-7.13,-7.1663,-7.1665,-7.1666,-7.1754,-7.1755,-7.1756,-7.1521,-7.1512,-7.1503,-7.1494,-7.1594,-7.1606,-7.1617,0,0,0,0,0,0,0,0,0,0,0,0,0,-7.1425,-7.1302,-7.1663,-7.1559,-7.155,-7.1753,-7.1755,-7.1756,-7.1523,-7.1511,-7.15,-7.149,-7.1591,-7.1605,-7.1619,-7.193,0,0,-7.1663,-7.1669,0,0,0,0,0,0,0,0,-7.1418,-7.1439,-7.1573,-7.1566,-7.1557,-7.1614,-7.166,-7.1815,-7.1525,-7.1533,-7.1497,-7.1485,-7.1613,-7.1624,-7.1666,-7.1934,-7.1939,-7.1664,-7.1673,-7.1679,-7.1683,0,0,0,0,0,0,0,-7.1409,-7.1434,-7.1699,-7.1575,-7.1566,-7.1509,-7.1515,-7.1688,-7.1635,-7.1532,-7.1515,-7.1528,-7.1606,-7.1653,-7.1667,-7.194,-7.1664,-7.1676,-7.1685,-7.1691,-7.2467,-7.2478,0,0,0,0,0,0,-7.1412,-7.1428,-7.1696,-7.1702,-7.1458,-7.1524,-7.1532,-7.1607,-7.1632,-7.1625,-7.1538,-7.1517,-7.1634,-7.165,-7.1669,-7.2034,-7.1679,-7.1692,-7.17,-7.2455,-7.2469,-7.2482,0,0,0,0,0,0,-7.1405,-7.1439,-7.1693,-7.156,-7.1588,-7.1543,-7.1629,-7.1615,-7.1661,-7.1636,-7.1626,-7.1595,-7.1625,-7.1649,-7.1866,-7.2034,-7.1699,-7.1712,-7.2441,-7.2459,-7.2476,-7.2767,0,0,0,0,0,0,-7.1396,-7.1437,-7.1554,-7.1565,-7.1596,-7.1888,-7.1639,-7.1624,-7.1685,-7.1659,-7.1687,-7.1681,-7.1619,-7.1846,-7.188,-7.2048,-7.1723,-7.2425,-7.2449,-7.247,-7.2742,-7.2793,-7.2836,0,0,0,0,0,-7.1383,-7.1635,-7.1561,-7.1595,-7.1741,-7.1898,-7.1916,-7.1836,-7.17,-7.1817,-7.1801,-7.168,-7.201,-7.187,-7.1907,-7.2081,-7.2415,-7.2442,-7.2469,-7.2721,-7.2783,-7.2835,0,0,0,0,0,0,-7.1649,-7.1634,-7.1553,-7.1815,-7.1859,-7.1857,-7.2003,-7.1905,-7.199,-7.1963,-7.1862,-7.1871,-7.2107,-7.2115,-7.196,-7.2383,-7.2189,-7.2225,-7.2369,-7.2427,-7.2473,-7.2467,-7.1735,0,0,0,0,0,-7.1737,-7.1863,-7.1845,-7.2078,-7.2104,-7.2051,-7.2116,-7.205,-7.2093,-7.2111,-7.2111,-7.2159,-7.2272,-7.235,-7.2453,-7.2742,-7.2744,-7.288,-7.2927,-7.2965,-7.2998,-7.315,-7.321,-7.2571,-7.2571,-7.257,0,0,-7.1922,-7.193,-7.2017,-7.2131,-7.2157,-7.2292,-7.2068,-7.222,-7.2319,-7.2135,-7.2339,-7.2341,-7.2387,-7.2641,-7.2753,-7.2656,-7.3174,-7.3,-7.3031,-7.3042,-7.3184,-7.3245,-7.3299,-7.2589,-7.2586,-7.2583,0,0,-7.2328,-7.2347,-7.2542,-7.2572,-7.2614,-7.2576,-7.2623,-7.2637,-7.263,-7.2832,-7.2696,-7.2813,-7.3012,-7.305,-7.3096,-7.3514,-7.3406,-7.3551,-7.3797,-7.3946,-7.3996,-7.4041,-7.419,-7.4245,-7.3583,-7.3584,-7.3584,0,-7.2554,-7.2749,-7.2656,-7.2817,-7.2871,-7.2707,-7.2904,-7.2939,-7.3014,-7.3057,-7.2945,-7.3189,-7.321,-7.3469,-7.3571,-7.3614,-7.3665,-7.3548,-7.3996,-7.404,-7.408,-7.4221,-7.4277,-7.3601,-7.3599,-7.3597,-7.3596,0,-7.3024,-7.3162,-7.3315,-7.3388,-7.346,-7.3639,-7.3574,-7.3658,-7.3586,-7.356,-7.3769,-7.3786,-7.389,-7.3946,-7.3879,-7.4197,-7.4135,-7.4013,-7.3816,-7.4159,-7.429,-7.4344,-7.3626,-7.3619,-7.3614,-7.361,0,0,-7.3603,-7.3619,-7.3677,-7.3707,-7.374,-7.3846,-7.4017,-7.4115,-7.4189,-7.4246,-7.4388,-7.4559,-7.4444,-7.4496,-7.4431,-7.4563,-7.4893,-7.4423,-7.4422,-7.451,-7.5244,-7.5337,-7.5401,-7.482,-7.483,-7.4838,-7.524,0,-7.4003,-7.4294,-7.4214,-7.4506,-7.4632,-7.4476,-7.4625,-7.4663,-7.4644,-7.4749,-7.4727,-7.485,-7.4689,-7.472,-7.4842,-7.4827,-7.5039,-7.4796,-7.4953,-7.496,-7.4947,-7.5469,-7.5568,-7.5947,-7.5291,-7.5299,-7.5306,0,-7.4509,-7.4582,-7.4886,-7.4896,-7.4946,-7.5082,-7.5164,-7.5266,-7.5306,-7.5282,-7.5339,-7.5247,-7.5417,-7.5219,-7.5452,-7.5289,-7.5348,-7.535,-7.5362,-7.5375,-7.5154,-7.5497,-7.6066,-7.6123,-7.5385,-7.5379,-7.5373,0,-7.49,-7.5075,-7.5278,-7.5309,-7.5327,-7.5425,-7.5437,-7.5465,-7.5529,-7.5602,-7.5642,-7.5736,-7.5788,-7.5862,-7.5798,-7.566,-7.6042,-7.5838,-7.6029,-7.6031,-7.6117,-7.6113,-7.6705,-7.6155,-7.6154,-7.6153,-7.6152,0,-7.5356,-7.5548,-7.5454,-7.558,-7.579,-7.5697,-7.5908,-7.5903,-7.5928,-7.6051,-7.5923,-7.6042,-7.5949,-7.6061,-7.6012,-7.6212,-7.6237,-7.6224,-7.6209,-7.6236,-7.6237,-7.6274,-7.6246,-7.6168,-7.6165,-7.6162,-7.616,0,-7.5829,-7.5773,-7.5985,-7.5983,-7.5986,-7.6142,-7.614,-7.6257,-7.6227,-7.6384,-7.6416,-7.637,-7.6494,-7.6437,-7.6568,-7.6534,-7.6792,-7.6742,-7.6779,-7.6766,-7.6959,-7.6942,-7.7596,-7.7676,-7.7075,-7.7081,-7.7086,0,-7.6123,-7.6267,-7.6279,-7.635,-7.637,-7.6488,-7.6551,-7.6465,-7.6536,-7.659,-7.6701,-7.6813,-7.6898,-7.7103,-7.7083,-7.7182,-7.7133,-7.7355,-7.7147,-7.717,-7.7137,-7.7129,-7.7143,-7.7398,-7.7405,-7.741,-7.7415,0,-7.6652,-7.6617,-7.6712,-7.6798,-7.6877,-7.6941,-7.6994,-7.7061,-7.6975,-7.7063,-7.7186,-7.7252,-7.7383,-7.7496,-7.7582,-7.7596,-7.7494,-7.748,-7.7529,-7.7559,-7.7574,-7.7568,-7.6893,-7.7466,-7.7461,-7.7457,-7.7454,-7.7452,-7.7045,-7.7164,-7.7191,-7.7301,-7.7331,-7.7384,-7.7492,-7.7475,-7.7575,-7.7673,-7.7616,-7.7761,-7.7795,-7.79,-7.7928,-7.804,-7.7953,-7.8024,-7.8042,-7.8062,-7.8087,-7.7556,-7.8056,-7.8054,-7.8053,-7.8051,-7.805,0,-7.7566,-7.7575,-7.7677,-7.7754,-7.7841,-7.7732,-7.7785,-7.7866,-7.7994,-7.8033,-7.8118,-7.826,-7.8368,-7.8356,-7.8455,-7.8548,-7.8503,-7.8577,-7.857,-7.8575,-7.816,-7.8107,-7.8612,-7.8612,-7.8612,-7.8611,-7.8611,-7.8611,-7.7848,-7.8044,-7.8013,-7.8223,-7.823,-7.8369,-7.8408,-7.8456,-7.8487,-7.865,-7.8738,-7.8728,-7.8747,-7.8846,-7.8941,-7.8935,-7.8978,-7.907,-7.9047,-7.866,-7.8604,-7.8551,-7.8501,-7.908,-7.9081,-7.9451,-7.9455,-7.9457]},{"header":{"parameterUnit":"m.s-1","parameterCategory":1,"la1":30.2991,"la2":30.254,"lo1":-89.0895,"lo2":-89.0444,"dy":0.0017,"dx":0.0017,"nx":28,"ny":28,"refTime":"2024-06-19T09:00:00:Z","depth":0,"parameterNumber":3,"parameterNumberName":"V-component_of_WINDS"},"data":[0,0,0,0,0,0,0,0,0,0,0,0,0,0,0,0,0,0,0,0,0,0,0,0,0,0,0,0,0,0,0,0,0,0,0,0,0,0,0,0,0,0,0,0,0,0,0,0,0,0,0,0,0,0,0,0,0,0,-0.6881,-0.6882,0,-0.6939,-0.694,-0.6941,-0.7036,-0.7038,-0.704,-0.7041,-0.7098,-0.7098,-0.7097,0,0,0,0,0,0,0,0,0,0,0,0,0,-0.6849,-0.6849,-0.6881,-0.6882,-0.6883,-0.6939,-0.694,-0.6941,-0.7036,-0.7038,-0.704,-0.7042,-0.7098,-0.7098,-0.7097,0,0,0,0,0,0,0,0,0,0,0,0,0,-0.6881,-0.6849,-0.6881,-0.6937,-0.6943,-0.6939,-0.694,-0.6941,-0.7035,-0.7038,-0.7041,-0.7043,-0.7098,-0.7098,-0.7097,-0.7043,0,0,-0.7097,-0.7097,0,0,0,0,0,0,0,0,-0.6879,-0.6882,-0.6928,-0.6933,-0.694,-0.6983,-0.6949,-0.6975,-0.7035,-0.7,-0.7041,-0.7045,-0.7057,-0.7061,-0.7066,-0.7045,-0.7048,-0.7097,-0.7097,-0.7096,-0.7096,0,0,0,0,0,0,0,-0.6876,-0.688,-0.6904,-0.6929,-0.6936,-0.6958,-0.6965,-0.6955,-0.7013,-0.7003,-0.701,-0.7016,-0.7061,-0.7066,-0.7068,-0.7049,-0.7097,-0.7097,-0.7096,-0.7096,-0.6983,-0.698,0,0,0,0,0,0,-0.6866,-0.6877,-0.6902,-0.6906,-0.6915,-0.6956,-0.6965,-0.6966,-0.7013,-0.7023,-0.7014,-0.702,-0.7065,-0.7068,-0.707,-0.7006,-0.7096,-0.7096,-0.7096,-0.6986,-0.6982,-0.6979,0,0,0,0,0,0,-0.6865,-0.6868,-0.69,-0.6894,-0.6899,-0.6954,-0.6955,-0.6966,-0.6971,-0.7021,-0.7032,-0.7008,-0.7067,-0.707,-0.7048,-0.701,-0.7096,-0.7096,-0.6989,-0.6985,-0.6981,-0.688,0,0,0,0,0,0,-0.6864,-0.6867,-0.6848,-0.6892,-0.6899,-0.6878,-0.6953,-0.6965,-0.6971,-0.698,-0.7019,-0.7028,-0.7069,-0.7048,-0.7048,-0.7011,-0.7096,-0.6993,-0.6987,-0.6982,-0.6887,-0.6873,-0.686,0,0,0,0,0,-0.6863,-0.6817,-0.6846,-0.6849,-0.6877,-0.6876,-0.688,-0.6929,-0.6967,-0.6947,-0.6979,-0.7026,-0.7014,-0.7045,-0.7046,-0.7008,-0.6996,-0.6989,-0.6983,-0.6893,-0.6875,-0.6861,0,0,0,0,0,0,-0.6766,-0.6824,-0.6857,-0.6825,-0.6845,-0.6892,-0.6869,-0.691,-0.6919,-0.6927,-0.6987,-0.6995,-0.6964,-0.6985,-0.7018,-0.6956,-0.7012,-0.7005,-0.6943,-0.6927,-0.6914,-0.6909,-0.7096,0,0,0,0,0,-0.6741,-0.6737,-0.6788,-0.6754,-0.6762,-0.6813,-0.6815,-0.6851,-0.6874,-0.6883,-0.6913,-0.6932,-0.6933,-0.6932,-0.6935,-0.6891,-0.6899,-0.6865,-0.6852,-0.6841,-0.6833,-0.6808,-0.6793,-0.6958,-0.6958,-0.6958,0,0,-0.6689,-0.6721,-0.6714,-0.6735,-0.6755,-0.6747,-0.682,-0.681,-0.6804,-0.6881,-0.6861,-0.6884,-0.691,-0.6875,-0.6862,-0.6891,-0.679,-0.6833,-0.6823,-0.6822,-0.68,-0.6784,-0.677,-0.6954,-0.6955,-0.6955,0,0,-0.659,-0.6615,-0.6588,-0.6606,-0.6635,-0.6669,-0.6662,-0.6703,-0.6721,-0.6703,-0.676,-0.6753,-0.6754,-0.6768,-0.6776,-0.668,-0.6722,-0.668,-0.6609,-0.6584,-0.6571,-0.656,-0.6522,-0.6508,-0.6673,-0.6672,-0.6672,0,-0.6522,-0.6514,-0.6569,-0.6554,-0.656,-0.6631,-0.6603,-0.6617,-0.6645,-0.6647,-0.668,-0.668,-0.6702,-0.667,-0.6647,-0.6652,-0.6644,-0.6674,-0.6569,-0.6558,-0.6548,-0.6513,-0.6499,-0.6667,-0.6667,-0.6668,-0.6669,0,-0.6426,-0.642,-0.6395,-0.6419,-0.6423,-0.6402,-0.6452,-0.6449,-0.6485,-0.6514,-0.6493,-0.6522,-0.6531,-0.6527,-0.6562,-0.6499,-0.6516,-0.6558,-0.6615,-0.6526,-0.6493,-0.6481,-0.6659,-0.6661,-0.6662,-0.6664,0,0,-0.6268,-0.6323,-0.6312,-0.6323,-0.6359,-0.6354,-0.6335,-0.6344,-0.6339,-0.6356,-0.6339,-0.6337,-0.6375,-0.6383,-0.642,-0.6398,-0.6316,-0.6443,-0.6444,-0.6415,-0.6245,-0.621,-0.6194,-0.6345,-0.6343,-0.6341,-0.6241,0,-0.6174,-0.6145,-0.6193,-0.6151,-0.6144,-0.621,-0.6193,-0.6212,-0.6239,-0.6235,-0.6265,-0.6261,-0.6314,-0.6319,-0.63,-0.633,-0.6282,-0.6338,-0.6328,-0.6326,-0.6316,-0.6178,-0.6143,-0.6047,-0.623,-0.6228,-0.6226,0,-0.6061,-0.6071,-0.6028,-0.6064,-0.6063,-0.6047,-0.6057,-0.6054,-0.6076,-0.6098,-0.6105,-0.6149,-0.6131,-0.6188,-0.6161,-0.6198,-0.6197,-0.6211,-0.6208,-0.6207,-0.6269,-0.6169,-0.6018,-0.6002,-0.6207,-0.6209,-0.621,0,-0.5945,-0.5948,-0.5923,-0.593,-0.5973,-0.5959,-0.5976,-0.6001,-0.6002,-0.6012,-0.6013,-0.6019,-0.6022,-0.6026,-0.6069,-0.6107,-0.6036,-0.6097,-0.605,-0.6049,-0.603,-0.603,-0.5872,-0.6034,-0.6034,-0.6035,-0.6035,0,-0.5833,-0.5804,-0.5871,-0.5854,-0.5822,-0.5878,-0.5844,-0.5868,-0.5889,-0.5877,-0.5935,-0.5922,-0.5982,-0.5975,-0.6009,-0.598,-0.5982,-0.5996,-0.6005,-0.5989,-0.5987,-0.5987,-0.5993,-0.6031,-0.6032,-0.6032,-0.6033,0,-0.5697,-0.5742,-0.5717,-0.5759,-0.5769,-0.5743,-0.5778,-0.5763,-0.5794,-0.5778,-0.5777,-0.5825,-0.5819,-0.5864,-0.5867,-0.589,-0.5843,-0.5865,-0.5835,-0.5841,-0.579,-0.5792,-0.5624,-0.5603,-0.5781,-0.5779,-0.5778,0,-0.5622,-0.5601,-0.564,-0.5636,-0.5649,-0.5643,-0.5645,-0.5698,-0.5697,-0.5719,-0.5701,-0.57,-0.5702,-0.569,-0.5724,-0.5726,-0.5746,-0.5687,-0.5747,-0.573,-0.5741,-0.574,-0.5737,-0.5673,-0.5671,-0.567,-0.5668,0,-0.5482,-0.5504,-0.5504,-0.5511,-0.5511,-0.5519,-0.5531,-0.5524,-0.5582,-0.5577,-0.5572,-0.5574,-0.5576,-0.5573,-0.5582,-0.5598,-0.564,-0.5649,-0.5638,-0.562,-0.5602,-0.5607,-0.5797,-0.5652,-0.5654,-0.5655,-0.5656,-0.5657,-0.5372,-0.5354,-0.5378,-0.5376,-0.539,-0.5399,-0.5386,-0.5415,-0.5412,-0.5418,-0.545,-0.5438,-0.5459,-0.5474,-0.5486,-0.5476,-0.5505,-0.5489,-0.5484,-0.5479,-0.5468,-0.5606,-0.5479,-0.5479,-0.548,-0.548,-0.548,0,-0.5232,-0.525,-0.5247,-0.5261,-0.5258,-0.5301,-0.5315,-0.5309,-0.5299,-0.5314,-0.5315,-0.5307,-0.5305,-0.5338,-0.5339,-0.5325,-0.5344,-0.5323,-0.5323,-0.5325,-0.5444,-0.5453,-0.5307,-0.5307,-0.5307,-0.5307,-0.5307,-0.5307,-0.5158,-0.513,-0.5155,-0.5133,-0.5152,-0.5141,-0.5145,-0.5153,-0.5165,-0.5154,-0.5152,-0.5175,-0.5196,-0.5199,-0.5197,-0.5207,-0.5203,-0.5174,-0.519,-0.53,-0.5317,-0.5333,-0.5341,-0.5174,-0.5174,-0.5071,-0.507,-0.5069]}]]